User: anonymous   Login
Location: Fontevrault
(47.1823°N, 0.0493°E)
Time: 02:53:32
(UTC+00:00)
Language:

OBJECT-B - Orbit

View from above orbital plane
View from above orbital plane
View from above satellite
View from above satellite

Ground track
Ground track

The orbit data is extracted from the following two-line orbital elements,

1 40382U 15004B   21267.83669831 0.00010000  00000-0  17189-3 0    02
2 40382  96.9393 305.2459 0006855  83.7060 276.2939 15.51109258    09
Epoch (UTC): 24 September 2021 20:04:50
Eccentricity: 0.0006855
inclination: 96.9393°
perigee height: 409 km
apogee height: 418 km
right ascension of ascending node: 305.2459°
argument of perigee: 83.7060°
revolutions per day: 15.51109258
mean anomaly at epoch: 276.2939°
orbit number at epoch: 0

The dashed part of the orbit path shows where the satellite is in the earth's shadow,  

DLR